Regional Weather Roundup
Issued by NWS

Home | Current Version | Previous Version | Text Only | Print | Product List | Glossary Off
Versions: 1 2 3 4 5 6 7 8 9 10 11 12 13 14 15 16 17 18 19 20 21 22 23 24 25 26 27

000
ASUS45 KCYS 180110
RWRWY

WYOMING REGIONAL WEATHER ROUNDUP
NATIONAL WEATHER SERVICE CHEYENNE WY
600 PM MST FRI NOV 17 2017

NOTE:  "FAIR" INDICATES FEW OR NO CLOUDS BELOW 12,000 FEET
WITH NO SIGNIFICANT WEATHER AND/OR OBSTRUCTIONS TO VISIBILITY.

WYZ001-180200-
YELLOWSTONE NATIONAL PARK

CITY           SKY/WX    TMP DP  RH WIND       PRES   REMARKS
LK YELLOWSTONE   N/A     16  12  84 VRB6      29.91R WCI   7
W YELLOWSTONE  NOT AVBL

$$
WYZ002>013-054>058-071-098>099-180200-
NORTHERN WYOMING

CITY           SKY/WX    TMP DP  RH WIND       PRES   REMARKS
JACKSON        NOT AVBL
CODY           FAIR      32  19  58 W9        29.86R WCI  24
GREYBULL       MOCLDY    40  17  39 N15       29.83R WCI  32
WORLAND        MOCLDY    35  26  69 NW8       29.84R WCI  29
SHERIDAN       FAIR      34  31  88 CALM      29.82R
BUFFALO        CLOUDY    32  27  81 N8        29.78R WCI  25
GILLETTE       CLOUDY    34  32  92 W17G25    29.76R WCI  23
HULETT         FAIR      36  32  87 W6        29.76R WCI  31
NEWCASTLE      FAIR      36  30  80 NW12      29.75R WCI  27

$$
WYZ014>020-022>026-101>103-180200-
CENTRAL WYOMING

CITY           SKY/WX    TMP DP  RH WIND       PRES   REMARKS
BIG PINEY      LGT SNOW  24  22  91 NW12      29.93R FOG     WCI  13
PINEDALE       FLURRIES  23  19  86 W14G23    29.92R WCI  11
DUBOIS         FAIR      21  12  68 NW10      29.85R WCI  10
LANDER         NOT AVBL
RIVERTON       LGT SNOW  30  26  85 N21G33    29.85R FOG     WCI  17
CASPER         CLOUDY    32  30  92 N7        29.79R WCI  26
DOUGLAS        LGT SNOW  32  32 100 NW10      29.78R FOG     WCI  24

$$
WYZ021-027>030-104>119-180200-
SOUTHERN WYOMING

CITY           SKY/WX    TMP DP  RH WIND       PRES   REMARKS
EVANSTON       FAIR      20  15  81 W15       30.01R WCI   6
FORT BRIDGER   FAIR      25  21  86 W15       30.02R WCI  12
ROCK SPRINGS   FAIR      26  21  81 W30G40    29.93R WCI  10
DIXON          CLOUDY    32  27  83 W10       29.93R WCI  23
RAWLINS        CLOUDY    31  25  78 W16       29.78R WCI  20
SARATOGA       LGT SNOW  28  28 100 W14       29.84R WCI  17
LARAMIE        LGT SNOW  29  28  96 NW29G40   29.77R FOG     WCI  14
CHEYENNE       CLOUDY    36  30  79 NW25G41   29.71R WCI  24
TORRINGTON     CLOUDY    44  36  73 W10       29.68R
PINE BLUFFS    CLOUDY    37  36  93 MISG      29.72R

$$




USA.gov is the U.S. government's official web portal to all federal, state and local government web resources and services.